Track STARLINK-1876 now! 10-day predictions STARLINK-1876 is classified as:
1 47161U 20088AR 22185.45349020 .00000394 00000-0 45358-4 0 9997 2 47161 53.0539 206.1264 0001962 54.3741 305.7431 15.06403149 89372